Location: Houston
(29.7630°N, 95.3630°W)
Time: 09:04:24
(UTC-05:00)

Daily predictions for brighter satellites

Satellite Brightness Start Highest point End
(mag) Time Altitude Azimuth Time Altitude Azimuth Time Altitude Azimuth
Resurs 01 Rocket 3.0 19:56:04 10° ESE 19:59:15 20° ENE 20:02:26 10° NNE
SL-27 R/B 2.5 19:59:55 10° N 20:03:31 66° ENE 20:07:08 10° SSE
Timation 1 Rocket 4.3 19:57:37 10° SSW 20:03:35 79° ESE 20:09:37 10° NNE
METEOR-M 4.1 20:00:35 10° SSE 20:05:54 85° ENE 20:11:16 10° N
ISS -3.2 20:03:31 10° SW 20:06:43 59° NW 20:09:56 10° NE
Cosmos 1605 Rocket 4.0 20:01:09 10° S 20:07:17 63° E 20:13:32 10° NNE
Cosmos 1707 4.2 20:04:08 10° NNW 20:07:48 42° W 20:11:27 10° SSW
Cosmos 2082 Rocket 3.5 20:06:12 10° NNE 20:10:28 21° ENE 20:14:41 10° ESE
FREGAT/IRIS 2.6 20:14:58 10° SSE 20:18:01 90° ESE 20:21:05 10° N
Meteor 1-24 Rocket 3.9 20:14:55 10° N 20:20:32 82° W 20:26:20 10° S
Delta 128 3.6 20:16:27 10° W 20:21:09 72° S 20:24:47 15° E
Cosmos 1271 Rocket 3.8 20:18:21 10° SSE 20:21:39 25° E 20:24:58 10° NE
Cosmos 1758 3.2 20:19:00 10° S 20:22:54 65° E 20:26:52 10° NNE
Aurora 2 Rocket 4.0 20:15:53 10° WSW 20:24:08 56° S 20:28:56 16° ESE
H-2A R/B 3.1 20:20:56 10° WSW 20:25:02 78° S 20:47:50 13° E
COSMOS 2487 4.0 20:23:07 10° NNE 20:25:44 19° ENE 20:26:44 17° E
Cosmos 372 Rocket 3.9 20:21:35 10° S 20:26:38 71° ESE 20:31:45 10° NNE
Cosmos 2123 Rocket 4.0 20:22:34 10° N 20:28:53 86° E 20:35:08 10° S
Cosmos 1953 2.2 20:25:12 10° S 20:29:14 72° E 20:33:17 10° N
Cosmos 1818 3.9 20:25:38 10° NNW 20:30:51 45° ENE 20:35:03 15° SE
Resurs 1-3 4.0 20:30:22 10° SE 20:34:30 42° ENE 20:38:39 10° N
Cosmos 1674 3.7 20:31:57 10° NNE 20:35:09 25° E 20:36:15 22° ESE
Meteor 1-4 Rocket 2.9 20:36:35 10° SSW 20:40:00 62° W 20:43:27 10° N
Cosmos 1408 Rocket 4.2 20:36:09 10° NNE 20:40:14 35° E 20:42:45 19° SE
USA 215 3.6 20:34:13 10° ENE 20:40:21 42° SE 20:46:27 10° SSW
Delta 168 3.2 20:42:49 10° WSW 20:46:57 42° S 20:48:10 30° SE
Helios 1B rocket 2.6 20:43:27 10° NNE 20:47:27 47° E 20:51:23 10° S
Spot 2 Rocket 3.4 20:45:40 10° SSE 20:50:44 76° ENE 20:55:52 10° N
Cosmos 2098 Rocket 4.5 20:44:21 10° S 20:51:26 83° W 20:59:06 10° N
Cosmos 2061 Rocket 4.2 20:46:17 10° SSE 20:52:22 50° E 20:58:32 10° NNE
Lacrosse 5 rocket 3.3 20:52:21 10° N 20:54:09 14° NE 20:54:09 14° NE
CZ-2D R/B 3.1 20:53:52 21° SSE 20:56:22 71° ENE 21:00:15 10° N
Cosmos 1459 Rocket 4.0 20:50:53 10° S 20:57:03 61° E 21:03:08 10° NNE
Cosmos 1076 Rocket 3.4 20:55:52 10° N 21:00:06 85° W 21:04:20 10° S
FENGYUN 3A 4.5 20:57:02 10° S 21:02:16 51° W 21:07:31 10° NNW
Gblst 52 Del rocket 4.2 20:56:15 10° SW 21:02:34 82° SE 21:07:37 13° NE
Helios 1A 3.1 21:02:56 45° ESE 21:03:32 49° ENE 21:07:34 10° N
Timation 2 Rocket 4.1 20:57:57 10° N 21:03:58 51° ENE 21:06:19 34° ESE
Cosmos 2173 Rocket 3.9 20:59:14 10° S 21:05:20 71° E 21:11:32 10° N
ALOS 3.7 21:01:08 10° SSW 21:05:28 38° W 21:09:49 10° NNW
Cosmos 1447 Rocket 4.4 20:59:46 10° N 21:05:55 87° W 21:12:05 10° S
Abrixas 3.3 21:04:54 10° NW 21:06:58 41° NNW 21:06:58 41° NNW
Envisat 3.4 21:08:43 38° E 21:09:00 39° ENE 21:13:42 10° N
Tiangong 1 2.9 21:09:27 10° W 21:11:46 21° SW 21:11:51 21° SW
Meteor 2-17 Rocket 4.4 21:07:31 10° S 21:13:30 57° E 21:19:29 10° NNE
OAO 1 4.4 21:08:49 10° WNW 21:14:20 89° SSW 21:15:52 49° ESE
Cosmos 1833 Rocket 2.6 21:08:46 10° NNW 21:14:23 74° ENE 21:16:33 38° SE
PSLV R/B 3.7 21:12:37 10° WSW 21:15:22 54° WNW 21:15:22 54° WNW
Cosmos 1733 3.7 21:12:30 10° SSW 21:16:17 59° W 21:20:07 10° N
Cosmos 1470 3.5 21:14:22 10° SSW 21:18:15 52° W 21:22:09 10° N
SeaSat 1 2.9 21:15:18 18° S 21:18:51 57° WSW 21:23:43 10° NNW
Spot 1 4.1 21:18:19 47° SSE 21:19:38 82° ENE 21:24:31 10° N
GPS 2-05 Rocket1 4.3 21:17:51 10° WNW 21:21:02 30° N 21:21:02 30° N
ATLAS 5 CENTAUR R/B 3.9 21:17:20 10° WSW 21:21:11 25° NW 21:25:16 10° N
Cosmos-2242 4.0 21:18:19 10° SSW 21:22:23 46° W 21:26:30 10° N
GP-B 3.8 21:21:48 10° S 21:26:08 54° W 21:30:28 10° NNW
Cosmos 1766 Rocket 4.2 21:22:48 10° NNW 21:27:12 57° W 21:29:36 25° SSW
OAO 2 Rocket 3.4 21:24:15 10° WSW 21:29:26 77° NNW 21:30:18 61° NE
Cosmos 1048 Rocket 4.4 21:24:25 10° NNW 21:29:27 58° WSW 21:32:00 28° S
CZ-3 Stage 3 3.3 20:58:14 10° W 21:35:11 86° N 21:37:49 47° E
Resurs 01 Rocket 3.6 21:31:48 10° SSW 21:35:29 26° W 21:39:13 10° NW
Cosmos 2016 Rocket 3.9 21:31:16 10° S 21:37:31 87° W 21:43:42 10° N
Yuri Rocket 4.5 21:34:00 10° W 21:36:57 26° SW 21:36:57 26° SW
Cosmos 1340 Rocket 3.7 21:35:12 10° NNW 21:38:09 45° NNW 21:38:09 45° NNW
CZ-4C R/B 4.1 21:34:17 10° SSW 21:34:54 14° SSW 21:34:54 14° SSW
Cosmos 1725 Rocket 3.8 21:47:25 75° ENE 21:47:25 75° ENE 21:53:24 10° N
Cosmos 2082 Rocket 3.3 21:49:22 10° NW 21:54:37 40° WSW 21:56:37 30° SSW
USA 215 4.2 22:17:10 10° NNE 22:23:13 42° NW 22:29:17 10° WSW
